CW2303 Weather Reports


Display with metric or nautical units.
time (UTC)temp
F
wind
direction
speed
MPH
gust
MPH
rain 1hr
in
rain 24hr
in
rain mn
in
humidity
%
barometer
mb
20260505102042 61 300 1.0 5.0 0.00 0.01 0.01 85 1006.2
20260505101551 61 302 0.0 9.0 0.00 0.01 0.01 86 1006.4
20260505101043 61 310 2.0 9.0 0.00 0.01 0.01 86 1006.8
20260505100543 60 311 1.0 7.0 0.00 0.01 0.01 87 1006.9
20260505100052 60 0 0.0 11.0 0.00 0.01 0.01 87 1006.5
20260505095542 60 348 5.0 11.0 0.00 0.01 0.01 86 1006.4
20260505095042 61 322 5.0 9.0 0.00 0.01 0.01 85 1006.3
20260505094554 61 287 1.0 4.0 0.00 0.01 0.01 85 1005.8
20260505094044 61 0 0.0 4.0 0.01 0.01 0.01 85 1005.5
20260505093542 61 269 1.0 7.0 0.01 0.01 0.01 85 1005.5
20260505093053 61 285 2.0 8.0 0.01 0.01 0.01 84 1005.4
20260505092544 61 270 2.0 9.0 0.01 0.01 0.01 84 1005.4
20260505092042 61 273 6.0 9.0 0.01 0.01 0.01 84 1005.2
20260505091604 61 270 2.0 6.0 0.01 0.01 0.01 84 1004.7
20260505091045 61 222 1.0 7.0 0.01 0.01 0.01 84 1004.2
20260505090543 61 188 2.0 9.0 0.01 0.01 0.01 84 1004.2
20260505090054 61 180 1.0 13.0 0.01 0.01 0.01 84 1004.4
20260505085543 61 182 1.0 13.0 0.01 0.01 0.01 84 1004.3
20260505085044 62 154 5.0 10.0 0.01 0.01 0.01 83 1003.9
20260505084553 62 159 3.0 10.0 0.00 0.00 0.00 81 1004.4
20260505084042 63 180 2.0 12.0 0.00 0.00 0.00 79 1005.6
20260505083542 63 263 3.0 13.0 0.00 0.00 0.00 78 1005.8
20260505083053 63 232 5.0 13.0 0.00 0.00 0.00 77 1005.9
20260505082542 63 252 3.0 7.0 0.00 0.00 0.00 76 1005.9
20260505082042 63 226 1.0 4.0 0.00 0.00 0.00 76 1006.0
20260505081553 63 239 1.0 6.0 0.00 0.00 0.00 76 1006.0
20260505081043 63 191 2.0 6.0 0.00 0.00 0.00 75 1005.7
20260505080545 63 213 1.0 4.0 0.00 0.00 0.00 75 1005.6
20260505080100 63 173 1.0 6.0 0.00 0.00 0.00 74 1005.5
20260505075547 63 208 2.0 8.0 0.00 0.00 0.00 74 1005.6
20260505075042 63 133 1.0 8.0 0.00 0.00 0.00 74 1005.7
20260505074549 63 222 1.0 4.0 0.00 0.00 0.00 74 1005.7
20260505074043 63 210 0.0 4.0 0.00 0.00 0.00 74 1005.6
20260505073543 63 0 0.0 4.0 0.00 0.00 0.00 74 1005.5
20260505073055 63 207 0.0 3.0 0.00 0.00 0.00 74 1005.6
20260505072543 63 204 0.0 5.0 0.00 0.00 0.00 74 1005.6
20260505072130 64 0 1.0 8.0 0.00 0.00 0.00 73 1005.5
20260505071554 64 193 1.0 8.0 0.00 0.00 0.00 74 1005.7
20260505071043 63 187 1.0 6.0 0.00 0.00 0.00 73 1005.6
20260505070543 63 178 2.0 5.0 0.00 0.00 0.00 74 1005.6
20260505070055 63 153 1.0 5.0 0.00 0.00 0.00 74 1005.6
20260505065543 63 191 2.0 7.0 0.00 0.00 0.00 74 1005.6
20260505065043 63 155 1.0 9.0 0.00 0.00 0.00 74 1005.6
20260505064554 63 159 1.0 9.0 0.00 0.00 0.00 74 1005.7
20260505064043 63 169 3.0 8.0 0.00 0.00 0.00 74 1005.8
20260505063542 63 207 3.0 7.0 0.00 0.00 0.00 74 1005.8
20260505063112 63 181 3.0 7.0 0.00 0.00 0.00 74 1005.8
20260505062546 63 171 2.0 6.0 0.00 0.00 0.00 74 1005.7
20260505062041 63 197 1.0 7.0 0.00 0.00 0.00 74 1005.8
20260505061556 63 169 2.0 7.0 0.00 0.00 0.00 74 1005.7
20260505061047 63 169 1.0 11.0 0.00 0.00 0.00 73 1005.7
20260505060543 63 230 3.0 11.0 0.00 0.00 0.00 73 1005.7
20260505060103 63 178 2.0 8.0 0.00 0.00 0.00 73 1005.7
20260505055543 64 188 1.0 7.0 0.00 0.00 0.00 73 1005.7
20260505055043 64 185 2.0 8.0 0.00 0.00 0.00 73 1005.9
20260505054609 64 191 3.0 8.0 0.00 0.00 0.00 72 1005.8
20260505054042 64 198 2.0 7.0 0.00 0.00 0.00 72 1006.0
20260505053542 64 165 3.0 10.0 0.00 0.00 0.00 72 1005.9
20260505053100 64 216 3.0 10.0 0.00 0.00 0.00 72 1006.0
20260505052542 64 182 3.0 9.0 0.00 0.00 0.00 72 1006.1
20260505052046 64 191 3.0 10.0 0.00 0.00 0.00 72 1006.1
20260505051551 64 190 3.0 10.0 0.00 0.00 0.00 72 1006.0
20260505051043 64 204 2.0 10.0 0.00 0.00 0.00 72 1005.7
20260505050543 64 175 1.0 9.0 0.00 0.00 0.00 72 1005.8
20260505041043 64 193 2.0 7.0 0.00 0.00 0.00 73 1006.3
20260505040543 64 155 2.0 6.0 0.00 0.00 0.00 73 1006.5
20260505040056 64 148 1.0 7.0 0.00 0.00 0.00 72 1006.5
20260505035542 64 202 2.0 7.0 0.00 0.00 0.00 72 1006.6
20260505035044 64 187 1.0 5.0 0.00 0.00 0.00 72 1006.6
20260505034559 64 159 1.0 6.0 0.00 0.00 0.00 71 1006.8
20260505034047 64 182 3.0 6.0 0.00 0.00 0.00 71 1006.8
20260505033543 64 156 2.0 5.0 0.00 0.00 0.00 71 1006.9
20260505033058 64 165 1.0 7.0 0.00 0.00 0.00 71 1006.9
20260505032542 64 148 2.0 7.0 0.00 0.00 0.00 71 1006.9
20260505032046 64 163 1.0 4.0 0.00 0.00 0.00 71 1006.9
20260505031603 64 162 2.0 4.0 0.00 0.00 0.00 71 1006.9
20260505031043 65 198 2.0 5.0 0.00 0.00 0.00 70 1006.9
20260505030543 65 194 1.0 5.0 0.00 0.00 0.00 69 1006.9
20260505030113 65 173 1.0 5.0 0.00 0.00 0.00 69 1007.0
20260505025544 66 188 1.0 5.0 0.00 0.00 0.00 68 1007.0
20260505025044 66 184 0.0 5.0 0.00 0.00 0.00 68 1007.1
20260505024559 66 0 1.0 4.0 0.00 0.00 0.00 67 1006.9
20260505024043 66 165 1.0 4.0 0.00 0.00 0.00 68 1006.8
20260505023543 66 164 1.0 6.0 0.00 0.00 0.00 67 1006.6
20260505023051 66 169 1.0 6.0 0.00 0.00 0.00 67 1006.5
20260505022543 66 175 1.0 6.0 0.00 0.00 0.00 67 1006.4
20260505022043 67 188 1.0 4.0 0.00 0.00 0.00 66 1006.3
20260505021558 67 162 1.0 4.0 0.00 0.00 0.00 65 1006.3
20260505021043 67 211 1.0 4.0 0.00 0.00 0.00 65 1006.3
20260505020543 67 0 1.0 6.0 0.00 0.00 0.00 65 1006.2
20260505020054 68 209 1.0 6.0 0.00 0.00 0.00 64 1006.1
20260505015545 68 148 2.0 6.0 0.00 0.00 0.00 63 1006.0
20260505015043 68 148 1.0 6.0 0.00 0.00 0.00 63 1006.0
20260505014607 68 207 1.0 6.0 0.00 0.00 0.00 62 1005.8
20260505014042 69 153 1.0 6.0 0.00 0.00 0.00 62 1005.8
20260505013542 69 193 2.0 6.0 0.00 0.00 0.00 61 1005.7
20260505013053 69 207 2.0 6.0 0.00 0.00 0.00 61 1005.5
20260505012542 69 194 1.0 7.0 0.00 0.00 0.00 61 1005.5
20260505012043 69 207 1.0 7.0 0.00 0.00 0.00 61 1005.5
20260505011604 69 188 1.0 6.0 0.00 0.00 0.00 61 1005.6
20260505011042 69 184 1.0 5.0 0.00 0.00 0.00 61 1005.6
20260505010544 69 190 1.0 4.0 0.00 0.00 0.00 60 1005.5
20260505010053 70 182 1.0 4.0 0.00 0.00 0.00 59 1005.3
20260505005543 70 170 1.0 3.0 0.00 0.00 0.00 57 1005.3
20260505005045 71 188 1.0 5.0 0.00 0.00 0.00 56 1005.3
20260505004553 71 203 1.0 5.0 0.00 0.00 0.00 55 1005.2
20260505004042 72 200 1.0 6.0 0.00 0.00 0.00 54 1005.1
20260505003543 72 199 2.0 6.0 0.00 0.00 0.00 53 1005.1
20260505003051 73 205 2.0 8.0 0.00 0.00 0.00 52 1005.1
20260505002542 73 189 2.0 9.0 0.00 0.00 0.00 51 1005.1
20260505002043 73 213 4.0 10.0 0.00 0.00 0.00 51 1005.0
20260505001551 74 209 4.0 10.0 0.00 0.00 0.00 51 1005.0
20260505001042 74 173 3.0 13.0 0.00 0.00 0.00 50 1005.1
20260505000544 74 157 4.0 13.0 0.00 0.00 0.00 50 1005.1
20260505000107 74 194 3.0 12.0 0.00 0.00 0.00 50 1005.1
20260504235543 75 211 4.0 13.0 0.00 0.00 0.00 50 1005.1
20260504235042 76 148 6.0 13.0 0.00 0.00 0.00 49 1005.2
20260504234551 76 178 3.0 12.0 0.00 0.00 0.00 49 1005.2
20260504234043 76 219 4.0 12.0 0.00 0.00 0.00 50 1005.1
20260504233543 76 143 5.0 13.0 0.00 0.00 0.00 49 1005.1
20260504233107 77 119 4.0 13.0 0.00 0.00 0.00 48 1005.2
20260504232543 77 213 3.0 9.0 0.00 0.00 0.00 50 1005.3
20260504232044 77 230 3.0 10.0 0.00 0.00 0.00 48 1005.2
20260504231552 77 212 4.0 10.0 0.00 0.00 0.00 48 1005.3
20260504231042 77 190 6.0 10.0 0.00 0.00 0.00 49 1005.3
20260504230543 78 204 3.0 13.0 0.00 0.00 0.00 50 1005.3
20260504230053 78 193 5.0 13.0 0.00 0.00 0.00 49 1005.3
20260504225543 78 175 3.0 10.0 0.00 0.00 0.00 48 1005.3
20260504225044 78 202 3.0 9.0 0.00 0.00 0.00 48 1005.3
20260504224604 78 246 4.0 19.0 0.00 0.00 0.00 47 1005.2
20260504224100 78 209 5.0 19.0 0.00 0.00 0.00 46 1005.4
20260504223543 78 231 8.0 15.0 0.00 0.00 0.00 46 1005.3
20260504223127 78 200 5.0 11.0 0.00 0.00 0.00 48 1005.3
20260504222543 78 198 4.0 9.0 0.00 0.00 0.00 47 1005.4
20260504222042 78 203 5.0 11.0 0.00 0.00 0.00 47 1005.5
20260504221554 78 194 4.0 12.0 0.00 0.00 0.00 48 1005.4
20260504221046 78 229 5.0 12.0 0.00 0.00 0.00 46 1005.5
20260504220543 78 225 4.0 9.0 0.00 0.00 0.00 49 1005.5
20260504220053 78 195 4.0 9.0 0.00 0.00 0.00 46 1005.4
20260504215543 78 264 4.0 12.0 0.00 0.00 0.00 50 1005.4
20260504215042 77 248 4.0 12.0 0.00 0.00 0.00 48 1005.4
20260504214553 77 231 5.0 12.0 0.00 0.00 0.00 48 1005.5
20260504214046 78 189 5.0 13.0 0.00 0.00 0.00 46 1005.5
20260504213543 78 235 6.0 14.0 0.00 0.00 0.00 46 1005.5
20260504213102 79 230 4.0 14.0 0.00 0.00 0.00 48 1005.5
20260504212543 79 162 5.0 15.0 0.00 0.00 0.00 46 1005.7
20260504212047 79 165 6.0 15.0 0.00 0.00 0.00 46 1005.7
20260504211551 79 208 4.0 14.0 0.00 0.00 0.00 48 1005.8
20260504211043 79 198 5.0 15.0 0.00 0.00 0.00 48 1005.8
20260504210548 79 228 8.0 15.0 0.00 0.00 0.00 47 1005.8
20260504210059 78 213 7.0 15.0 0.00 0.00 0.00 48 1005.8
20260504205544 78 198 6.0 15.0 0.00 0.00 0.00 47 1006.0
20260504205045 78 163 5.0 14.0 0.00 0.00 0.00 47 1006.0
20260504204554 78 238 5.0 15.0 0.00 0.00 0.00 46 1006.0
20260504204043 78 249 6.0 15.0 0.00 0.00 0.00 48 1006.2
20260504203543 78 201 8.0 16.0 0.00 0.00 0.00 44 1006.3
20260504203107 78 185 8.0 19.0 0.00 0.00 0.00 46 1006.3
20260504202543 78 144 8.0 19.0 0.00 0.00 0.00 47 1006.4
20260504202046 78 141 6.0 15.0 0.00 0.00 0.00 47 1006.5
20260504201558 79 215 6.0 14.0 0.00 0.00 0.00 49 1006.6
20260504201043 79 236 7.0 15.0 0.00 0.00 0.00 47 1006.5
20260504200543 78 205 6.0 15.0 0.00 0.00 0.00 47 1006.6
20260504195542 79 228 5.0 16.0 0.00 0.00 0.00 47 1006.7
20260504195042 79 167 5.0 24.0 0.00 0.00 0.00 49 1006.7
20260504194552 78 216 7.0 24.0 0.00 0.00 0.00 45 1006.8
20260504194045 79 173 7.0 15.0 0.00 0.00 0.00 47 1006.7
20260504193545 78 133 6.0 19.0 0.00 0.00 0.00 49 1006.8
20260504193055 78 148 7.0 19.0 0.00 0.00 0.00 48 1006.9
20260504192542 78 261 5.0 16.0 0.00 0.00 0.00 46 1006.8
20260504192044 78 204 7.0 16.0 0.00 0.00 0.00 47 1006.9
20260504191600 78 236 7.0 16.0 0.00 0.00 0.00 48 1007.0
20260504191042 78 180 7.0 16.0 0.00 0.00 0.00 48 1007.1
20260504190543 78 209 7.0 16.0 0.00 0.00 0.00 49 1007.0
20260504190052 78 226 6.0 15.0 0.00 0.00 0.00 48 1007.1
20260504185542 78 167 7.0 18.0 0.00 0.00 0.00 46 1007.1
20260504185043 78 185 6.0 18.0 0.00 0.00 0.00 49 1007.0
20260504184557 78 199 6.0 16.0 0.00 0.00 0.00 51 1007.2
20260504184043 78 168 7.0 16.0 0.00 0.00 0.00 49 1007.2
20260504183542 78 163 6.0 14.0 0.00 0.00 0.00 50 1007.1
20260504183053 78 138 5.0 13.0 0.00 0.00 0.00 53 1007.2
20260504182546 77 207 6.0 14.0 0.00 0.00 0.00 50 1007.1
20260504182042 77 231 8.0 16.0 0.00 0.00 0.00 51 1007.1
20260504181554 77 132 8.0 16.0 0.00 0.00 0.00 50 1007.1
20260504181043 78 162 8.0 15.0 0.00 0.00 0.00 49 1007.0
20260504180544 78 176 6.0 16.0 0.00 0.00 0.00 51 1007.2
20260504180055 78 172 6.0 16.0 0.00 0.00 0.00 52 1007.1
20260504175543 78 252 6.0 16.0 0.00 0.00 0.00 50 1007.1
20260504175043 77 218 6.0 14.0 0.00 0.00 0.00 52 1007.1
20260504174602 77 134 6.0 14.0 0.00 0.00 0.00 53 1007.2
20260504174043 77 195 8.0 14.0 0.00 0.00 0.00 51 1007.2
20260504173543 77 190 7.0 14.0 0.00 0.00 0.00 50 1007.3
20260504173100 77 180 7.0 15.0 0.00 0.00 0.00 51 1007.3
20260504172543 77 204 7.0 18.0 0.00 0.00 0.00 50 1007.3
20260504172042 77 229 7.0 18.0 0.00 0.00 0.00 50 1007.2
20260504171554 77 235 6.0 12.0 0.00 0.00 0.00 50 1007.2
20260504171043 77 179 5.0 14.0 0.00 0.00 0.00 52 1007.3
20260504170542 76 160 6.0 17.0 0.00 0.00 0.00 53 1007.2
20260504151043 71 149 8.0 16.0 0.00 0.00 0.00 54 1008.4
20260504150543 71 220 4.0 18.0 0.00 0.00 0.00 56 1008.5
20260504150103 70 212 6.0 18.0 0.00 0.00 0.00 53 1008.6
20260504141042 68 211 5.0 14.0 0.00 0.00 0.00 58 1008.9
20260504140542 67 196 4.0 14.0 0.00 0.00 0.00 59 1009.0
20260504130551 62 194 4.0 8.0 0.00 0.00 0.00 65 1009.3
20260504110543 58 150 1.0 7.0 0.00 0.00 0.00 68 1009.8